FW6591 Weather Reports


Display with metric or nautical units.
time (UTC)temp
F
wind
direction
speed
MPH
gust
MPH
rain 1hr
in
rain 24hr
in
rain mn
in
humidity
%
barometer
mb
20260902124557 71 242 1.0 4.0 0.00 0.00 0.00 60 1019.9
20260902123045 69 183 3.0 6.0 0.00 0.00 0.00 64 1020.2
20260902121550 68 85 0.0 5.0 0.00 0.00 0.00 67 1020.6
20260902120048 67 182 2.0 4.0 0.00 0.00 0.00 67 1021.1
20260902114546 66 44 1.0 6.0 0.00 0.00 0.00 67 1021.7
20260902113107 65 180 2.0 6.0 0.00 0.00 0.00 71 1021.8
20260902111556 63 215 2.0 5.0 0.00 0.00 0.00 74 1022.3
20260902110043 63 162 1.0 2.0 0.00 0.00 0.00 75 1022.5
20260902104546 62 230 1.0 5.0 0.00 0.00 0.00 76 1022.8
20260902103048 60 234 1.0 4.0 0.00 0.00 0.00 78 1023.4
20260902101604 59 181 2.0 3.0 0.00 0.00 0.00 79 1023.9
20260902100046 60 207 0.0 2.0 0.00 0.00 0.00 79 1024.3
20260902094551 59 0 0.0 2.0 0.00 0.00 0.00 80 1024.9
20260902093055 57 57 1.0 2.0 0.00 0.00 0.00 82 1025.2
20260902091551 57 201 0.0 4.0 0.00 0.00 0.00 84 1025.3
20260902090047 56 236 3.0 6.0 0.00 0.00 0.00 86 1025.6
20260902084551 56 0 1.0 3.0 0.00 0.00 0.00 84 1025.6
20260902083046 56 73 1.0 3.0 0.00 0.00 0.00 87 1025.6
20260902081552 55 217 2.0 3.0 0.00 0.00 0.00 88 1025.9
20260902080059 55 198 0.0 2.0 0.00 0.00 0.00 89 1026.1
20260902074546 55 222 2.0 4.0 0.00 0.00 0.00 90 1026.1
20260902073044 54 269 1.0 4.0 0.00 0.00 0.00 91 1026.1
20260902071555 54 169 0.0 2.0 0.00 0.00 0.00 92 1026.3
20260902070051 54 0 1.0 3.0 0.00 0.00 0.00 92 1026.3
20260902064555 54 0 0.0 2.0 0.00 0.00 0.00 93 1026.1
20260902063047 53 101 0.0 2.0 0.00 0.00 0.00 93 1026.2
20260902060050 53 63 0.0 2.0 0.00 0.00 0.00 93 1026.4
20260902054550 53 90 0.0 2.0 0.00 0.00 0.00 93 1026.5
20260902053057 53 209 1.0 2.0 0.00 0.00 0.00 92 1026.4
20260902051554 53 250 0.0 2.0 0.00 0.00 0.00 92 1026.3
20260902050100 53 208 1.0 3.0 0.00 0.00 0.00 91 1026.3
20260902044547 53 0 1.0 2.0 0.00 0.00 0.00 91 1026.1
20260902043044 53 85 0.0 2.0 0.00 0.00 0.00 91 1026.2
20260902041600 53 115 0.0 2.0 0.00 0.00 0.00 91 1025.9
20260902040050 53 163 0.0 2.0 0.00 0.00 0.00 91 1026.0
20260902034552 53 169 2.0 4.0 0.00 0.00 0.00 92 1026.0
20260902033105 53 196 2.0 5.0 0.00 0.00 0.00 92 1025.8
20260902031557 53 196 2.0 6.0 0.00 0.00 0.00 92 1025.6
20260902030043 52 184 2.0 4.0 0.00 0.00 0.00 91 1025.6
20260902024557 52 209 1.0 4.0 0.00 0.00 0.00 90 1025.5
20260902023104 52 203 1.0 3.0 0.00 0.00 0.00 90 1025.2
20260902021608 52 212 1.0 2.0 0.00 0.00 0.00 88 1025.3
20260902020055 52 205 1.0 2.0 0.00 0.00 0.00 88 1025.3
20260902014553 52 316 0.0 2.0 0.00 0.00 0.00 88 1025.3
20260902013048 51 227 0.0 2.0 0.00 0.00 0.00 89 1025.3
20260902011548 50 190 0.0 2.0 0.00 0.00 0.00 87 1025.5
20260902010057 51 197 2.0 3.0 0.00 0.00 0.00 84 1025.2
20260902004558 53 197 1.0 2.0 0.00 0.00 0.00 83 1025.2
20260902003056 53 232 0.0 2.0 0.00 0.00 0.00 83 1025.0
20260902001547 53 0 0.0 2.0 0.00 0.00 0.00 79 1025.1
20260902000054 53 344 2.0 6.0 0.00 0.00 0.00 79 1025.0
20260901234611 54 10 0.0 2.0 0.00 0.00 0.00 79 1025.1
20260901233055 55 57 0.0 2.0 0.00 0.00 0.00 77 1025.2
20260901231551 56 360 0.0 2.0 0.00 0.00 0.00 76 1025.1
20260901230123 57 360 0.0 2.0 0.00 0.00 0.00 75 1025.0
20260901224556 57 0 0.0 4.0 0.00 0.00 0.00 73 1025.0
20260901223113 58 188 1.0 1.0 0.00 0.00 0.00 71 1025.0
20260901221549 58 192 2.0 3.0 0.00 0.00 0.00 71 1025.2
20260901214556 58 202 1.0 3.0 0.00 0.00 0.00 70 1025.2
20260901213053 60 0 0.0 2.0 0.00 0.00 0.00 67 1025.2
20260901211559 61 126 1.0 2.0 0.00 0.00 0.00 64 1025.1
20260901210101 62 196 4.0 8.0 0.00 0.00 0.00 62 1024.9
20260901204555 61 194 4.0 6.0 0.00 0.00 0.00 63 1024.6
20260901203054 60 231 0.0 7.0 0.00 0.00 0.00 64 1024.1
20260901201604 58 346 4.0 7.0 0.00 0.00 0.00 68 1023.8
20260901200105 59 342 3.0 5.0 0.00 0.00 0.00 66 1023.7
20260901194605 59 13 4.0 8.0 0.00 0.00 0.00 67 1023.9
20260901193053 60 347 6.0 11.0 0.00 0.00 0.00 67 1024.0
20260901191549 62 349 5.0 9.0 0.00 0.00 0.00 62 1024.2
20260901190106 62 10 1.0 5.0 0.00 0.00 0.00 62 1024.4
20260901184553 63 360 3.0 6.0 0.00 0.00 0.00 61 1024.7
20260901183050 64 360 2.0 5.0 0.00 0.00 0.00 58 1024.4
20260901181554 64 9 2.0 4.0 0.00 0.00 0.00 59 1024.2
20260901180055 66 9 0.0 2.0 0.00 0.00 0.00 57 1024.3
20260901174551 66 0 0.0 2.0 0.00 0.00 0.00 56 1024.5
20260901173104 67 9 1.0 2.0 0.00 0.00 0.00 54 1024.1
20260901171554 69 0 0.0 2.0 0.00 0.00 0.00 51 1024.2
20260901170050 70 121 0.0 2.0 0.00 0.00 0.00 49 1024.1
20260901164626 71 0 0.0 2.0 0.00 0.00 0.00 49 1024.0
20260901163056 70 157 1.0 2.0 0.00 0.00 0.00 49 1023.8
20260901161551 71 193 0.0 2.0 0.00 0.00 0.00 50 1023.7
20260901160050 72 0 0.0 2.0 0.00 0.00 0.00 47 1023.6
20260901154545 73 158 0.0 2.0 0.00 0.00 0.00 48 1023.5
20260901153054 75 0 0.0 2.0 0.00 0.00 0.00 46 1023.2
20260901151555 77 0 0.0 0.0 0.00 0.00 0.00 43 1023.0
20260901150046 78 0 0.0 2.0 0.00 0.00 0.00 44 1023.0
20260901144559 78 161 0.0 2.0 0.00 0.00 0.00 46 1022.9
20260901143055 78 0 0.0 2.0 0.00 0.00 0.00 39 1022.9
20260901141556 79 190 0.0 3.0 0.00 0.00 0.00 39 1022.7
20260901140048 79 163 0.0 6.0 0.00 0.00 0.00 40 1022.8
20260901134547 80 111 0.0 3.0 0.00 0.00 0.00 37 1023.0
20260901133047 79 80 1.0 3.0 0.00 0.00 0.00 37 1023.0
20260901131611 80 198 1.0 3.0 0.00 0.00 0.00 38 1023.3
20260901130108 79 9 0.0 5.0 0.00 0.00 0.00 36 1023.2